Regional Weather Roundup
Issued by NWS Wakefield, VA

Home | Current Version | Previous Version | Text Only | Print | Product List | Glossary Off
Versions: 1 2 3 4 5 6 7 8 9 10 11 12 13 14 15 16 17 18 19 20 21 22 23 24 25 26 27

000
ASUS41 KAKQ 221610
RWRAKQ

REGIONAL WEATHER ROUNDUP
NATIONAL WEATHER SERVICE WAKEFIELD VA
1200 PM EDT TUE APR 22 2014

Note: "fair" indicates few or no clouds below 12,000 feet with no
significant weather and/or obstructions to visibility. * = Denotes
station may not report precipitation (e.g., rain,snow,etc.),
thunder or fog.

VAZ042-051-052>054-056-221700-
NORTHERN VIRGINIA

CITY           SKY/WX    TMP DP  RH WIND       PRES   REMARKS
WASH NATIONAL  PTSUNNY   68  49  50 S9        29.68F
DULLES         PTSUNNY   68  44  42 W5        29.69S
FORT BELVOIR   MOSUNNY   71  47  41 SE2       29.68F
QUANTICO       PTSUNNY   65  49  56 S7        29.69F
FREDERICKSBRG* CLOUDY    73  45  35 SW8       29.68F
STAFFORD*      PTSUNNY   72  46  40 CALM      29.73S
WARRENTON      CLOUDY    71  53  52 CALM      29.69S
CULPEPER*      CLOUDY    72  43  35 SW3       29.70S
MANASSAS*      PTSUNNY   70  45  40 SW3       29.69S
LEESBURG*      LGT RAIN  68  50  52 CALM      29.69S
WINCHESTER     LGT RAIN  64  46  52 SW7       29.69F
$$

VAZ048-049-060>072-079>083-221700-
CENTRAL AND SOUTH CENTRAL VIRGINIA...AND NORTH CENTRAL NORTH CAROLINA

CITY           SKY/WX    TMP DP  RH WIND       PRES   REMARKS
RICHMOND       PTSUNNY   74  47  38 VRB6      29.70F
CHESTERFIELD*  NOT AVBL
HANOVER        MOSUNNY   76  44  32 SW8       29.71F
TAPPAHANNOCK*  MOSUNNY   74  41  30 S5        29.69F
CHARLOTTSVILLE LGT RAIN  68  51  54 S7        29.71S
ORANGE*        CLOUDY    70  45  40 SW6       29.72S
LOUISA*        CLOUDY    73  45  35 SW5       29.69F
FARMVILLE*     MOSUNNY   79  45  29 SW10      29.69F
SOUTH HILL*    LGT RAIN  75  50  41 SW5       29.79S
ROANOKE RAPIDS MOSUNNY   66  43  42 S6        29.74F
RALEIGH        PTSUNNY   73  51  46 SW7       29.77F
$$

VAZ088>098-221700-
SOUTHEAST VIRGINIA

CITY           SKY/WX    TMP DP  RH WIND       PRES   REMARKS
NORFOLK        MOSUNNY   73  48  41 S12       29.72F
VIRGINIA BEACH PTSUNNY   74  47  38 SW10      29.73F
NORFOLK NAVAL  MOSUNNY   74  46  36 SW12      29.73F
WEST POINT*    SUNNY     74  45  35 S8        29.71F
NEWPORT NEWS   SUNNY     75  47  36 SW14      29.72F
LANGLEY AFB    MOSUNNY   72  48  43 S13       29.72F
FORT EUSTIS    MOSUNNY   71  53  53 VRB7      29.70F
WILLIAMSBURG*  SUNNY     77  50  38 S9        29.72F
FRANKLIN*      SUNNY     75  46  35 SW9       29.73F
WAKEFIELD        N/A    N/A N/A N/A MISG      29.72F
$$

VAZ020-022-025-037-045-221700-
WESTERN AND SOUTHWEST VIRGINIA

CITY           SKY/WX    TMP DP  RH WIND       PRES   REMARKS
STAUNTON*      CLOUDY    67  47  48 S7        29.73F
HOT SPRINGS VA CLOUDY    57  46  67 W22G31    29.86S
LYNCHBURG      CLOUDY    77  47  34 VRB3      29.75F
DANVILLE       MOSUNNY   76  48  37 W8        29.75F
MARTINSVILLE   CLOUDY    77  47  34 W3        29.79F
ROANOKE        CLOUDY    74  47  38 SW12      29.77F
BLACKSBURG     PTSUNNY   70  54  56 W8        29.82F
DUBLIN*        CLOUDY    66  49  54 W10       29.82S
MARION*        CLOUDY    65  48  54 W16G23    29.87S
HILLSVILLE*    PTSUNNY   70  43  37 W16G28    29.86F
RICHLANDS*     LGT RAIN  60  55  84 W7        29.88R
WISE*          CLOUDY    57  55  94 SW7       29.90S
ABINGDON*      CLOUDY    66  51  59 W10G18    29.87S
$$

MDZ021>025-VAZ099-100-221700-
SOUTHERN MARYLAND AND THE DELMARVA PENINSULA

CITY           SKY/WX    TMP DP  RH WIND       PRES   REMARKS
PATUXENT RIVER PTSUNNY   68  50  52 SE5       29.68F
BAY BRIDGE APT MOSUNNY   63  46  55 SE9       29.68F
LEONARDTOWN    SUNNY     70  41  35 SW6       29.69F
DOVER          MOSUNNY   70  49  46 SW8       29.65F
GEORGETOWN     MOSUNNY   73  44  35 S13       29.69F
EASTON         MOSUNNY   70  48  46 SW10      29.72F
CAMBRIDGE      NOT AVBL
SALISBURY      SUNNY     76  40  27 S13       29.69F
OCEAN CITY     MOSUNNY   58  49  72 S8        29.72F
WALLOPS ISLAND SUNNY     64  50  60 SW15      29.72F
ACCOMACK*      SUNNY     72  45  37 S10G16    29.71F
$$

NCZ012>017-030>032-221700-
EASTERN NORTH CAROLINA

CITY           SKY/WX    TMP DP  RH WIND       PRES   REMARKS
ELIZABETH CITY SUNNY     71  54  54 SW12      29.76F
AHOSKIE*       MOSUNNY   74  47  39 S6        29.75F
EDENTON*       SUNNY     72  53  50 SW9       29.76F
CURRITUCK*     SUNNY     73  49  42 S8        29.76F
KILL DEVIL HLS SUNNY     70  49  47 SW6       29.77F
MANTEO         SUNNY     67  53  58 S8        29.79F
CAPE HATTERAS  SUNNY     63  32  31 SW8       29.81F
GOLDSBORO      PTSUNNY   74  49  41 SW12G21   29.76F
WASHINGTON     SUNNY     74  46  36 SW13      29.78F
GREENVILLE     SUNNY     77  50  38 SW14      29.79F
NEW BERN       MOSUNNY   76  50  40 W8        29.81F
WILMINGTON     SUNNY     78  46  32 SW8       29.82F
$$

VAZ048-221700-
ELSEWHERE

CITY           SKY/WX    TMP DP  RH WIND       PRES   REMARKS
HARRISBURG PA  CLOUDY    62  44  51 SW3       29.66S
BALTIMORE      PTSUNNY   70  45  40 CALM      29.66F
ANNAPOLIS      MOSUNNY   59  50  72 SE13      29.67F
ANDREWS AFB    MOSUNNY   71  45  39 VRB6      29.67F
WILMINGTON DE  MOSUNNY   67  48  50 S7        29.67F
PHILADELPHIA   PTSUNNY   66  44  45 SW10      29.67F
WILDWOOD NJ*   MOSUNNY   64  50  59 S13       29.71F
ATLANTIC CITY  MOSUNNY   67  49  52 S12       29.68F
HENDERSON NC   MOSUNNY   76  46  35 SW6       29.76F
GREENSBORO     PTSUNNY   74  48  39 SW6       29.78F
ROCKY MOUNT    SUNNY     74  50  42 SW12      29.76F
FAYETTEVILLE   SUNNY     76  46  34 SW13      29.79F
CHARLOTTE      PTSUNNY   78  51  38 NW8       29.82F
$$

VAZ100-221700-
MARINE

STATION/POSITION TIME  TEMP    WIND        PRES    WAVE   SWELL
                       AIR SEA DIR/SP/G            HT/PER HT/PER
                 (UTC) (F)     (DEG/KT/KT) (MB)    (FT/S) (FT/S)
44066 TX TWR #4  1600   48 47  200/  6/  6 1006.9F   5/ 8   5/ 8
CAPE MAY NJ      1600   58 55  160/ 11/ 14 1005.5F
LEWES DE         1600   69 48  200/ 10/ 15 1004.4F
15NM E FENWICK I 1600   50 47              1006.3F   5/ 9
OCEAN-CITY-INLET 1600   51 51  210/ 10/ 13 1006.0F
WACHAPREAGUE VA  1600   58 56  170/  9/ 11 1006.2F
THOMAS POINT MD  1600   57 54  160/ 11/ 12 1005.3F
GOOSES REEF MD   1600   55     170/ 14/ 16   N/A
COVE POINT MD    1600   54     170/ 14/ 15 1005.2F
SOLOMONS ISLAND  1600      55                N/A
BISHOPS HEAD MD  1600   60 57  180/ 11/ 13 1005.5F
PINEY POINT MD   1600          120/  5/  5   N/A
POTOMAC MD       1600   57     130/  4/  4 1005.2F
CAMBRIDGE MD     1600   66 56  190/  7/ 11 1004.7F
LEWISETTA VA     1600   70 57  240/  8/ 11 1004.7F
RAPPAHANNOCK LGT 1600          170/ 14/ 15 1006.5F
STINGRAY PT      1600   57     190/ 10/ 12 1006.4F
YORK RVR RNG VA  1600   64     220/  6/  8 1005.5F
YORKTOWN VA      1600   70 56  230/  8/ 10 1005.7F
JAMESTOWN VA     1600   68     240/  6/ 10   N/A
DOMINION TERM VA 1600   65     210/  9/ 10 1006.6F
KIPTOPEKE VA     1600      55  190/  7/  9   N/A
CHES BAY BRIDGE  1600   67 54  190/ 11/ 12 1006.4F
CAPE HENRY VA    1600   71     190/ 10/ 13   N/A
CHESAPEAKE LGHT  1500   51     190/ 15/ 15 1008.4F
WILLOUBY STN VA  1600   65     240/  5/  6 1005.7F
S CRANEY ISL VA  1600          170/  8/ 11 1006.6F
CAPE HENRY BUOY  1600      47                N/A     4/ 9   2/11
1ST LANDING BUOY 1600      49                N/A     4/ 8   3/ 8
64NM E OF VA BCH 1600   48 49  190/  6/  8 1008.3F   5/ 9   5/ 9
DUCK PIER NC     1600   65 49  200/ 10/ 12 1007.3F
44100 DUCK FRF   1600      50                N/A     4/ 9   2/11
44056 DUCK FRF   1600      52                N/A     4/ 8   2/11
OREGON INLET NC  1600   58 53  190/ 13/ 14 1008.7F
HATTERAS NC      1600   64 54  200/  5/  9 1009.8F
DIAMOND SHLS NC  1600   67 76  250/ 14/ 16 1009.3F   5/ 9   5/ 9
CAPE LOOKOUT NC  1500   66     220/ 10/ 13 1010.2F
FRYING PAN SHLS  1600   67 67  250/ 16/ 19 1010.5F   4/ 9   3/ 9
$$



USA.gov is the U.S. government's official web portal to all federal, state and local government web resources and services.